User: anonymous   Login
Location: ?????
(30.4569°N, 47.8921°E)
Time: 02:36:12
(UTC+00:00)
Language:

NOSS 7 (D) - Orbit

View from above orbital plane
View from above orbital plane
View from above satellite
View from above satellite

Ground track
Ground track

The orbit data is extracted from the following two-line orbital elements,

1 16623U 86014D   20221.16812881  .00137471  00000-0  17463-2 0  9995
2 16623  63.2653  89.2942 0231133  81.6904 281.0349 15.33162540 56255
Epoch (UTC): 08 August 2020 04:02:06
Eccentricity: 0.0231133
inclination: 63.2653°
perigee height: 308 km
apogee height: 624 km
right ascension of ascending node: 89.2942°
argument of perigee: 81.6904°
revolutions per day: 15.33162540
mean anomaly at epoch: 281.0349°
orbit number at epoch: 5625

The dashed part of the orbit path shows where the satellite is in the earth's shadow,  

DLR